Weather History for Ann Arbor, MI

Change the Weather History Date:

Thursday, November 3, 2011

  Actual Average Record
Temperature  
Mean Temperature 43 °F -  
Max Temperature 50 °F 52 °F 69 °F (2005)
Min Temperature 36 °F 32 °F 17 °F (2006)
Degree Days  
Heating Degree Days 22    
Moisture  
Dew Point 40 °F    
Average Humidity 77    
Maximum Humidity 93    
Minimum Humidity 63    
Precipitation  
Precipitation 0.00 in - - ()
Sea Level Pressure  
Sea Level Pressure 30.04 in    
Wind  
Wind Speed 6 mph (NE)    
Max Wind Speed 15 mph    
Max Gust Speed 22 mph    
Visibility 10 miles    
Events      
Averages and records for this station are not official NWS values.
T = Trace of Precipitation, MM = Missing Value Source: NWS Daily Summary

Daily Weather History Graph

Daily Weather History Graph

Search for Another Location

Airport:

Trip Planner

Search our weather history database for the weather conditions in past years. The results will help you decide how hot, cold, wet, or windy it might be!

Date:

Astronomy

Nov. 03, 2011 Rise Set
Actual Time 8:10 AM EDT 6:26 PM EDT
Civil Twilight 7:40 AM EDT 6:55 PM EDT
Nautical Twilight 7:07 AM EDT 7:28 PM EDT
Astronomical Twilight 6:35 AM EDT 8:01 PM EDT
Moon 2:56 PM EDT (11/3) 1:13 AM EDT (11/3)
Length of Visible Light 11h 14m
Length of Day
10h 16m
First Quarter, 60% of the Moon is Illuminated
Nov 3
First Quarter
Nov 10
Full
Nov 18
Last Quarter
Nov 25
New
Dec 2
First Quarter

Hourly Weather History & Observations

Time (EDT) Temp. Windchill Dew Point Humidity Pressure Visibility Wind Dir Wind Speed Gust Speed Precip Events Conditions
12:53 AM 46.9 °F - 39.0 °F 74% 30.02 in 10.0 mi Calm Calm - N/A   Clear
1:53 AM 45.0 °F 43.5 °F 39.9 °F 82% 30.00 in 10.0 mi South 3.5 mph - N/A   Clear
2:53 AM 48.0 °F - 39.0 °F 71% 30.00 in 10.0 mi Calm Calm - N/A   Clear
3:53 AM 42.1 °F - 37.9 °F 85% 30.01 in 10.0 mi Calm Calm - N/A   Clear
4:53 AM 36.0 °F - 34.0 °F 93% 29.99 in 9.0 mi Calm Calm - N/A   Clear
6:53 AM 39.9 °F - 37.0 °F 89% 30.01 in 9.0 mi Calm Calm - N/A   Mostly Cloudy
7:53 AM 46.9 °F - 42.1 °F 83% 30.00 in 10.0 mi NE 6.9 mph - N/A   Scattered Clouds
8:53 AM 46.0 °F 43.9 °F 42.1 °F 86% 30.01 in 7.0 mi NE 4.6 mph - N/A   Clear
9:27 AM 48.2 °F - 44.6 °F 87% 30.02 in 6.0 mi NE 6.9 mph - N/A   Mostly Cloudy
9:53 AM 48.9 °F - 44.1 °F 83% 30.04 in 6.0 mi ENE 6.9 mph - N/A   Haze
10:53 AM 48.0 °F - 43.0 °F 83% 30.06 in 10.0 mi NNE 11.5 mph 18.4 mph N/A   Overcast
11:35 AM 48.2 °F - 42.8 °F 82% 30.04 in 10.0 mi NE 13.8 mph 18.4 mph N/A   Overcast
11:53 AM 50.0 °F - 43.0 °F 77% 30.06 in 10.0 mi NNE 13.8 mph - N/A   Overcast
12:53 PM 48.9 °F - 42.1 °F 77% 30.06 in 10.0 mi NE 12.7 mph 19.6 mph N/A   Overcast
1:53 PM 48.9 °F - 42.1 °F 77% 30.03 in 10.0 mi NE 13.8 mph 18.4 mph N/A   Overcast
2:53 PM 48.9 °F - 41.0 °F 74% 30.01 in 10.0 mi NNE 15.0 mph - N/A   Overcast
3:53 PM 50.0 °F - 39.9 °F 68% 30.03 in 10.0 mi ENE 8.1 mph - N/A   Overcast
4:21 PM 50.0 °F - 39.2 °F 66% 30.00 in 10.0 mi NE 11.5 mph - N/A   Scattered Clouds
4:53 PM 48.9 °F - 39.9 °F 71% 30.01 in 10.0 mi NE 9.2 mph - N/A   Clear
5:25 PM 48.2 °F - 39.2 °F 71% 30.02 in 10.0 mi NE 6.9 mph - N/A   Mostly Cloudy
5:53 PM 48.9 °F - 39.9 °F 71% 30.02 in 10.0 mi NNE 10.4 mph - N/A   Overcast
7:15 PM 48.2 °F - 39.2 °F 71% 30.06 in 10.0 mi NNE 9.2 mph - N/A   Overcast
7:53 PM 48.0 °F - 37.0 °F 66% 30.08 in 10.0 mi NE 9.2 mph - N/A   Overcast
8:53 PM 46.9 °F - 35.1 °F 63% 30.11 in 10.0 mi NE 15.0 mph 20.7 mph N/A   Overcast
10:53 PM 44.1 °F 37.4 °F 35.1 °F 71% 30.14 in 10.0 mi NNE 13.8 mph 21.9 mph N/A   Mostly Cloudy
11:53 PM 42.1 °F 35.2 °F 35.1 °F 76% 30.15 in 10.0 mi North 12.7 mph - N/A   Clear